QPF
0.03 0.03 0.03 0.02 0.02 0.02 0.02 0.02 0.03 0.03 0.03 0.02 0.02 0.02 0.01 0.02 0.03 0.02 0.02 0.02 0.02 0.02 0.02 0.02 0.02 0.02 0.03 0.03 0.02 0.02 0.03 0.03 0.03 0.04 0.04 0.05 0.07 0.08
0.02 0.01 0.01 0.02 0.02 0.02 0.02 0.01 0.02 0.02 0.02 0.01 0.01 0.02 0.02 0.01 0.02 0.01 0.02 0.02 0.01 0.01 0.01 0.01 0.01 0.01 0.02 0.02 0.02 0.02 0.02 0.02 0.03 0.03 0.03 0.04 0.05 0.06
0.02 0.02 0.02 0.02 0.02 0.02 0.02 0.02 0.02 0.02 0.02 0.02 0.02 0.02 0.01 0.01 0.01 0.01 0.01 0.01 0.01 0.01 0.01 0.01 0.01 0.01 0.01 0.01 0.02 0.02 0.02 0.02 0.02 0.02 0.02 0.02 0.03 0.03
0.01 0.02 0.02 0.02 0.01 0.01 0.01 0.01 0.02 0.02 0.02 0.02 0.02 0.02 0.01 0.01 0.01 0.01 0.01 0.01 0.01 0.01 0.01 0.01 0.01 0.00 0.00 0.00 0.01 0.01 0.02 0.02 0.02 0.02 0.02 0.01 0.02 0.02
0.01 0.01 0.01 0.01 0.01 0.01 0.01 0.01 0.01 0.02 0.02 0.02 0.02 0.02 0.01 0.01 0.01 0.01 0.01 0.01 0.00 0.00 0.00 0.00 0.00 0.00 0.00 0.00 0.00 0.00 0.00 0.01 0.01 0.01 0.02 0.02 0.02 0.02
0.01 0.01 0.01 0.01 0.01 0.01 0.01 0.01 0.01 0.02 0.02 0.02 0.01 0.02 0.02 0.01 0.02 0.02 0.01 0.01 0.00 0.00 0.00 0.00 0.00 0.00 0.00 0.00 0.00 0.00 0.00 0.00 0.00 0.00 0.00 0.01 0.01 0.01
0.01 0.01 0.01 0.01 0.01 0.01 0.01 0.01 0.01 0.01 0.01 0.01 0.01 0.02 0.02 0.02 0.02 0.01 0.01 0.01 0.01 0.00 0.01 0.00 0.00 0.01 0.01 0.01 0.00 0.00 0.00 0.00 0.00 0.00 0.00 0.00 0.00 0.00
0.01 0.01 0.01 0.01 0.01 0.01 0.01 0.01 0.01 0.01 0.02 0.02 0.02 0.02 0.02 0.02 0.01 0.01 0.01 0.01 0.01 0.01 0.01 0.01 0.01 0.02 0.03 0.02 0.00 0.00 0.00 0.00 0.00 0.00 0.00 0.00 0.00 0.00
0.01 0.01 0.01 0.00 0.00 0.01 0.01 0.00 0.00 0.00 0.01 0.01 0.02 0.02 0.02 0.02 0.02 0.02 0.02 0.02 0.02 0.01 0.01 0.03 0.03 0.04 0.02 0.00 0.00 0.00 0.00 0.00 0.00 0.00 0.00 0.00 0.00 0.00
0.01 0.01 0.01 0.01 0.01 0.00 0.00 0.00 0.00 0.00 0.00 0.00 0.01 0.01 0.01 0.01 0.01 0.01 0.01 0.02 0.03 0.03 0.01 0.03 0.05 0.05 0.02 0.03 0.00 0.00 0.00 0.00 0.00 0.00 0.00 0.00 0.00 0.00
0.01 0.01 0.01 0.01 0.00 0.00 0.01 0.01 0.01 0.01 0.00 0.00 0.00 0.00 0.00 0.00 0.00 0.01 0.02 0.03 0.05 0.05 0.02 0.03 0.05 0.04 0.04 0.04 0.01 0.00 0.00 0.00 0.00 0.00 0.00 0.00 0.00 0.00
0.01 0.01 0.00 0.00 0.00 0.00 0.01 0.02 0.02 0.02 0.01 0.01 0.01 0.01 0.01 0.01 0.00 0.01 0.04 0.04 0.05 0.06 0.04 0.03 0.06 0.04 0.04 0.04 0.03 0.02 0.02 0.01 0.00 0.00 0.00 0.00 0.00 0.01
0.01 0.02 0.01 0.00 0.00 0.00 0.00 0.02 0.01 0.01 0.01 0.02 0.03 0.03 0.04 0.05 0.04 0.02 0.03 0.04 0.06 0.07 0.04 0.03 0.05 0.04 0.04 0.04 0.04 0.02 0.01 0.01 0.02 0.02 0.01 0.00 0.00 0.00
0.01 0.01 0.01 0.00 0.00 0.00 0.00 0.01 0.00 0.00 0.02 0.03 0.04 0.04 0.04 0.04 0.04 0.03 0.02 0.02 0.03 0.04 0.03 0.02 0.03 0.03 0.03 0.04 0.03 0.02 0.01 0.01 0.01 0.02 0.02 0.01 0.01 0.00
0.01 0.00 0.01 0.01 0.01 0.02 0.00 0.00 0.01 0.02 0.04 0.05 0.05 0.04 0.03 0.02 0.01 0.02 0.02 0.02 0.02 0.01 0.00 0.01 0.02 0.02 0.03 0.03 0.03 0.03 0.02 0.01 0.01 0.02 0.02 0.02 0.02 0.01
0.02 0.01 0.01 0.01 0.02 0.02 0.02 0.02 0.02 0.02 0.03 0.03 0.04 0.03 0.02 0.01 0.01 0.01 0.02 0.03 0.04 0.04 0.01 0.01 0.01 0.02 0.02 0.02 0.02 0.03 0.02 0.01 0.01 0.01 0.02 0.02 0.01 0.01
0.01 0.02 0.03 0.04 0.04 0.04 0.03 0.03 0.03 0.02 0.01 0.02 0.04 0.04 0.03 0.03 0.02 0.01 0.01 0.01 0.04 0.04 0.04 0.02 0.01 0.01 0.01 0.01 0.02 0.02 0.02 0.02 0.02 0.01 0.02 0.03 0.02 0.01
0.01 0.03 0.02 0.01 0.02 0.03 0.02 0.01 0.01 0.01 0.02 0.02 0.03 0.03 0.03 0.02 0.01 0.01 0.01 0.02 0.03 0.03 0.02 0.01 0.01 0.03 0.03 0.02 0.01 0.01 0.01 0.01 0.01 0.01 0.02 0.03 0.03 0.01
0.01 0.02 0.01 0.01 0.02 0.02 0.01 0.00 0.00 0.00 0.01 0.01 0.02 0.01 0.01 0.01 0.01 0.02 0.02 0.02 0.02 0.02 0.01 0.00 0.01 0.03 0.05 0.04 0.01 0.00 0.01 0.02 0.02 0.02 0.02 0.02 0.02 0.01
0.00 0.00 0.00 0.00 0.00 0.00 0.01 0.00 0.00 0.00 0.00 0.01 0.01 0.01 0.01 0.01 0.01 0.02 0.04 0.03 0.03 0.02 0.02 0.01 0.00 0.01 0.02 0.02 0.01 0.01 0.00 0.01 0.02 0.02 0.01 0.01 0.01 0.01
0.00 0.00 0.00 0.00 0.00 0.00 0.00 0.00 0.00 0.00 0.00 0.01 0.01 0.01 0.01 0.02 0.02 0.01 0.02 0.01 0.01 0.02 0.02 0.01 0.00 0.00 0.00 0.00 0.01 0.01 0.00 0.00 0.00 0.00 0.00 0.00 0.01 0.01
0.00 0.00 0.00 0.00 0.00 0.00 0.00 0.00 0.00 0.00 0.00 0.00 0.00 0.00 0.00 0.01 0.01 0.00 0.00 0.00 0.01 0.01 0.01 0.01 0.00 0.00 0.00 0.00 0.01 0.01 0.00 0.00 0.00 0.00 0.00 0.00 0.00 0.00
0.00 0.00 0.00 0.00 0.00 0.00 0.00 0.00 0.00 0.00 0.00 0.00 0.00 0.00 0.00 0.00 0.00 0.00 0.00 0.00 0.01 0.01 0.01 0.01 0.00 0.00 0.00 0.00 0.00 0.00 0.00 0.00 0.00 0.00 0.00 0.00 0.00 0.00
MSLP
1022.75 1022.74 1022.74 1022.74 1022.74 1022.77 1022.82 1022.89 1022.99 1023.12 1023.26 1023.40 1023.53 1023.63 1023.69 1023.71 1023.70 1023.64 1023.56 1023.46 1023.34 1023.20 1023.05 1022.88 1022.70 1022.49 1022.27 1022.03 1021.76 1021.47 1021.16 1020.83 1020.48 1020.13 1019.76 1019.41 1019.07 1018.77
1023.38 1023.38 1023.36 1023.34 1023.31 1023.29 1023.28 1023.29 1023.32 1023.37 1023.44 1023.50 1023.56 1023.60 1023.60 1023.58 1023.52 1023.44 1023.33 1023.22 1023.09 1022.97 1022.84 1022.71 1022.57 1022.42 1022.25 1022.06 1021.83 1021.56 1021.25 1020.91 1020.52 1020.12 1019.70 1019.29 1018.90 1018.55
1023.97 1023.97 1023.97 1023.94 1023.91 1023.86 1023.81 1023.77 1023.74 1023.72 1023.70 1023.69 1023.67 1023.64 1023.58 1023.49 1023.38 1023.25 1023.11 1022.96 1022.82 1022.69 1022.58 1022.48 1022.39 1022.30 1022.19 1022.06 1021.89 1021.66 1021.39 1021.05 1020.66 1020.23 1019.77 1019.31 1018.87 1018.47
1024.48 1024.51 1024.52 1024.51 1024.48 1024.42 1024.36 1024.28 1024.20 1024.13 1024.05 1023.97 1023.87 1023.76 1023.63 1023.47 1023.29 1023.10 1022.90 1022.72 1022.55 1022.40 1022.29 1022.21 1022.16 1022.12 1022.08 1022.01 1021.91 1021.75 1021.52 1021.22 1020.84 1020.41 1019.93 1019.44 1018.97 1018.53
1024.94 1024.98 1025.02 1025.02 1025.01 1024.96 1024.89 1024.80 1024.69 1024.58 1024.44 1024.30 1024.13 1023.95 1023.74 1023.51 1023.26 1023.00 1022.74 1022.50 1022.29 1022.12 1022.00 1021.93 1021.90 1021.90 1021.91 1021.90 1021.87 1021.78 1021.61 1021.35 1021.02 1020.61 1020.14 1019.64 1019.15 1018.68
1025.33 1025.39 1025.44 1025.47 1025.47 1025.44 1025.38 1025.29 1025.17 1025.02 1024.85 1024.65 1024.43 1024.18 1023.90 1023.60 1023.28 1022.95 1022.63 1022.34 1022.08 1021.87 1021.73 1021.65 1021.62 1021.64 1021.69 1021.74 1021.76 1021.73 1021.62 1021.42 1021.14 1020.76 1020.32 1019.84 1019.35 1018.86
1025.68 1025.74 1025.79 1025.83 1025.86 1025.85 1025.80 1025.72 1025.59 1025.43 1025.23 1024.99 1024.71 1024.41 1024.07 1023.70 1023.33 1022.94 1022.57 1022.22 1021.92 1021.68 1021.50 1021.40 1021.37 1021.39 1021.45 1021.52 1021.58 1021.59 1021.53 1021.39 1021.15 1020.82 1020.43 1019.98 1019.50 1019.02
1025.98 1026.02 1026.07 1026.13 1026.16 1026.17 1026.14 1026.06 1025.93 1025.76 1025.53 1025.26 1024.95 1024.59 1024.21 1023.81 1023.38 1022.96 1022.55 1022.17 1021.83 1021.55 1021.34 1021.21 1021.15 1021.16 1021.21 1021.28 1021.34 1021.37 1021.34 1021.23 1021.03 1020.75 1020.40 1019.99 1019.54 1019.09
1026.21 1026.24 1026.29 1026.34 1026.38 1026.39 1026.36 1026.29 1026.16 1025.97 1025.73 1025.43 1025.10 1024.71 1024.30 1023.87 1023.43 1022.98 1022.55 1022.15 1021.79 1021.49 1021.26 1021.09 1021.00 1020.96 1020.98 1021.02 1021.06 1021.07 1021.04 1020.94 1020.77 1020.53 1020.22 1019.86 1019.45 1019.03
1026.40 1026.40 1026.43 1026.47 1026.50 1026.51 1026.48 1026.40 1026.26 1026.06 1025.80 1025.49 1025.13 1024.74 1024.32 1023.88 1023.43 1022.99 1022.57 1022.17 1021.80 1021.49 1021.23 1021.03 1020.89 1020.81 1020.77 1020.75 1020.73 1020.70 1020.64 1020.54 1020.37 1020.15 1019.88 1019.56 1019.21 1018.84
1026.53 1026.51 1026.52 1026.54 1026.55 1026.55 1026.50 1026.41 1026.25 1026.04 1025.76 1025.44 1025.07 1024.67 1024.26 1023.83 1023.40 1022.98 1022.57 1022.19 1021.83 1021.52 1021.24 1021.01 1020.82 1020.67 1020.56 1020.46 1020.38 1020.29 1020.17 1020.03 1019.86 1019.64 1019.40 1019.13 1018.83 1018.52
1026.65 1026.61 1026.58 1026.57 1026.56 1026.52 1026.45 1026.33 1026.15 1025.92 1025.63 1025.30 1024.93 1024.54 1024.13 1023.72 1023.32 1022.93 1022.55 1022.19 1021.86 1021.54 1021.25 1020.99 1020.75 1020.54 1020.34 1020.17 1020.00 1019.82 1019.65 1019.46 1019.26 1019.05 1018.83 1018.60 1018.36 1018.12
1026.77 1026.70 1026.64 1026.59 1026.54 1026.47 1026.36 1026.21 1026.00 1025.74 1025.44 1025.10 1024.73 1024.35 1023.96 1023.58 1023.21 1022.85 1022.50 1022.17 1021.84 1021.53 1021.23 1020.94 1020.65 1020.37 1020.10 1019.84 1019.59 1019.34 1019.10 1018.87 1018.64 1018.43 1018.23 1018.04 1017.87 1017.70
1026.90 1026.80 1026.70 1026.62 1026.52 1026.40 1026.25 1026.06 1025.83 1025.55 1025.23 1024.89 1024.52 1024.15 1023.78 1023.42 1023.07 1022.74 1022.42 1022.10 1021.79 1021.47 1021.15 1020.83 1020.50 1020.17 1019.84 1019.50 1019.18 1018.86 1018.57 1018.29 1018.05 1017.84 1017.66 1017.52 1017.40 1017.30
1027.04 1026.90 1026.77 1026.63 1026.49 1026.33 1026.14 1025.92 1025.66 1025.36 1025.04 1024.70 1024.34 1023.97 1023.62 1023.27 1022.94 1022.62 1022.30 1021.99 1021.68 1021.36 1021.02 1020.67 1020.31 1019.93 1019.55 1019.16 1018.79 1018.42 1018.09 1017.79 1017.54 1017.33 1017.18 1017.08 1017.03 1017.00
1027.15 1026.97 1026.80 1026.62 1026.44 1026.24 1026.02 1025.78 1025.51 1025.21 1024.89 1024.55 1024.19 1023.84 1023.49 1023.15 1022.82 1022.50 1022.18 1021.86 1021.54 1021.20 1020.85 1020.48 1020.09 1019.69 1019.27 1018.86 1018.45 1018.06 1017.71 1017.40 1017.15 1016.96 1016.84 1016.78 1016.77 1016.81
1027.19 1026.98 1026.77 1026.56 1026.35 1026.13 1025.91 1025.66 1025.39 1025.10 1024.79 1024.46 1024.12 1023.77 1023.42 1023.07 1022.73 1022.39 1022.06 1021.72 1021.38 1021.03 1020.66 1020.28 1019.88 1019.46 1019.04 1018.62 1018.20 1017.81 1017.46 1017.15 1016.90 1016.73 1016.63 1016.60 1016.64 1016.72
1027.11 1026.88 1026.65 1026.43 1026.22 1026.00 1025.79 1025.56 1025.32 1025.05 1024.76 1024.45 1024.12 1023.78 1023.42 1023.06 1022.69 1022.33 1021.97 1021.61 1021.24 1020.87 1020.49 1020.11 1019.71 1019.30 1018.88 1018.47 1018.06 1017.68 1017.33 1017.03 1016.80 1016.63 1016.54 1016.53 1016.58 1016.69
1026.91 1026.67 1026.44 1026.23 1026.04 1025.86 1025.69 1025.50 1025.30 1025.07 1024.81 1024.52 1024.20 1023.85 1023.48 1023.10 1022.70 1022.31 1021.91 1021.52 1021.13 1020.75 1020.37 1019.98 1019.59 1019.20 1018.80 1018.41 1018.02 1017.65 1017.31 1017.02 1016.78 1016.61 1016.52 1016.50 1016.55 1016.66
1026.60 1026.38 1026.18 1026.01 1025.87 1025.75 1025.63 1025.50 1025.35 1025.17 1024.95 1024.68 1024.36 1024.00 1023.60 1023.19 1022.76 1022.32 1021.89 1021.47 1021.06 1020.67 1020.28 1019.91 1019.54 1019.16 1018.79 1018.42 1018.04 1017.69 1017.35 1017.06 1016.81 1016.62 1016.50 1016.46 1016.48 1016.56
1026.24 1026.06 1025.92 1025.82 1025.75 1025.70 1025.66 1025.60 1025.50 1025.36 1025.17 1024.90 1024.58 1024.19 1023.77 1023.31 1022.84 1022.36 1021.89 1021.44 1021.02 1020.62 1020.24 1019.87 1019.52 1019.17 1018.82 1018.46 1018.10 1017.75 1017.41 1017.10 1016.82 1016.60 1016.44 1016.35 1016.32 1016.36
1025.92 1025.80 1025.73 1025.71 1025.73 1025.76 1025.79 1025.80 1025.76 1025.65 1025.46 1025.19 1024.84 1024.42 1023.95 1023.44 1022.92 1022.40 1021.90 1021.42 1020.99 1020.58 1020.21 1019.86 1019.52 1019.18 1018.85 1018.50 1018.14 1017.78 1017.43 1017.09 1016.78 1016.52 1016.30 1016.15 1016.07 1016.04
1025.68 1025.64 1025.66 1025.73 1025.83 1025.95 1026.05 1026.11 1026.10 1026.00 1025.80 1025.51 1025.12 1024.65 1024.12 1023.56 1022.98 1022.42 1021.89 1021.39 1020.94 1020.54 1020.17 1019.83 1019.51 1019.19 1018.86 1018.51 1018.15 1017.78 1017.40 1017.03 1016.69 1016.37 1016.11 1015.90 1015.74 1015.65
Thickness
5604 5604 5604 5603 5604 5603 5603 5602 5601 5598 5593 5584 5580 5575 5573 5570 5566 5565 5563 5558 5556 5553 5550 5548 5546 5544 5542 5540 5538 5536 5534 5532 5531 5530 5529 5528 5527 5526
5589 5588 5589 5590 5589 5589 5588 5587 5587 5586 5582 5576 5569 5564 5560 5559 5555 5553 5551 5547 5545 5541 5538 5535 5533 5531 5529 5527 5525 5523 5521 5519 5518 5516 5515 5514 5513 5511
5575 5574 5573 5573 5575 5576 5575 5574 5573 5572 5568 5563 5558 5553 5549 5547 5545 5542 5541 5538 5537 5531 5527 5524 5521 5519 5517 5515 5513 5511 5509 5506 5505 5503 5501 5500 5499 5498
5561 5561 5560 5560 5559 5560 5560 5559 5557 5554 5554 5549 5546 5543 5538 5536 5533 5531 5532 5530 5527 5522 5518 5515 5511 5508 5505 5503 5501 5499 5497 5495 5493 5491 5489 5487 5486 5484
5548 5547 5547 5546 5546 5545 5545 5546 5544 5542 5540 5539 5537 5532 5531 5527 5525 5525 5524 5520 5520 5516 5512 5507 5503 5499 5497 5494 5491 5489 5487 5485 5483 5481 5479 5477 5475 5473
5535 5535 5534 5533 5532 5532 5532 5530 5530 5530 5528 5529 5527 5525 5522 5519 5517 5517 5516 5515 5513 5510 5506 5503 5498 5494 5491 5488 5484 5481 5478 5476 5474 5472 5470 5468 5465 5463
5524 5523 5521 5517 5515 5516 5518 5517 5518 5519 5520 5519 5517 5516 5512 5510 5509 5508 5508 5507 5506 5503 5501 5499 5496 5492 5487 5482 5478 5474 5471 5469 5467 5465 5463 5460 5458 5456
5515 5514 5512 5509 5505 5504 5503 5501 5501 5504 5506 5506 5506 5504 5501 5501 5499 5499 5500 5499 5498 5497 5495 5494 5492 5489 5485 5480 5472 5469 5465 5463 5461 5459 5456 5454 5452 5450
5505 5505 5505 5501 5499 5499 5496 5493 5492 5490 5488 5491 5495 5493 5492 5492 5490 5492 5491 5491 5490 5490 5489 5490 5489 5485 5482 5475 5469 5465 5461 5459 5457 5454 5452 5450 5448 5445
5497 5496 5495 5493 5491 5488 5491 5492 5491 5488 5485 5485 5485 5484 5484 5482 5482 5483 5484 5486 5487 5486 5485 5486 5485 5482 5481 5473 5467 5463 5460 5457 5454 5451 5449 5446 5444 5442
5490 5487 5486 5486 5478 5478 5482 5485 5485 5484 5480 5478 5477 5477 5476 5475 5475 5479 5484 5486 5486 5486 5483 5483 5482 5481 5479 5474 5469 5464 5460 5457 5453 5450 5446 5444 5443 5442
5485 5482 5475 5474 5471 5471 5476 5479 5479 5478 5479 5479 5477 5476 5476 5476 5473 5474 5479 5482 5483 5482 5480 5479 5480 5479 5478 5475 5472 5467 5462 5458 5454 5450 5446 5443 5441 5443
5482 5480 5473 5467 5466 5466 5467 5470 5469 5469 5475 5478 5478 5479 5479 5478 5478 5477 5476 5477 5478 5478 5478 5477 5477 5477 5476 5475 5473 5470 5466 5462 5457 5452 5448 5444 5441 5439
5475 5473 5468 5463 5462 5462 5463 5463 5464 5465 5473 5476 5477 5477 5478 5478 5477 5476 5475 5474 5473 5474 5473 5472 5474 5474 5474 5474 5473 5471 5468 5465 5461 5458 5453 5447 5443 5439
5467 5462 5460 5460 5460 5461 5459 5461 5463 5468 5470 5472 5473 5474 5476 5475 5476 5476 5476 5475 5475 5475 5475 5472 5473 5474 5473 5473 5473 5472 5470 5467 5464 5460 5457 5453 5448 5444
5464 5461 5458 5458 5459 5458 5460 5462 5464 5464 5465 5468 5470 5473 5474 5475 5476 5477 5478 5478 5478 5477 5476 5475 5473 5473 5475 5475 5474 5473 5471 5469 5466 5463 5460 5456 5452 5448
5458 5463 5462 5461 5460 5460 5461 5461 5462 5463 5465 5466 5468 5470 5472 5474 5475 5477 5477 5479 5479 5479 5480 5479 5479 5478 5478 5476 5476 5475 5473 5471 5468 5466 5462 5461 5457 5452
5455 5460 5459 5458 5458 5458 5458 5459 5460 5460 5461 5463 5466 5468 5470 5473 5475 5476 5478 5478 5479 5481 5481 5482 5482 5481 5481 5481 5473 5475 5474 5472 5471 5468 5467 5464 5461 5456
5456 5457 5455 5454 5454 5454 5455 5456 5457 5458 5458 5461 5464 5467 5470 5472 5474 5476 5478 5478 5479 5481 5482 5483 5483 5482 5481 5481 5479 5471 5473 5472 5471 5472 5471 5468 5465 5461
5455 5454 5453 5452 5452 5451 5452 5453 5454 5456 5458 5460 5462 5465 5468 5470 5473 5475 5477 5477 5479 5480 5482 5484 5483 5481 5480 5479 5480 5479 5473 5473 5472 5472 5472 5471 5470 5463
5454 5453 5452 5451 5450 5450 5450 5450 5451 5454 5455 5457 5461 5463 5466 5469 5473 5476 5478 5477 5478 5482 5483 5484 5483 5478 5481 5483 5483 5483 5480 5474 5472 5470 5470 5471 5471 5470
5452 5451 5450 5448 5448 5449 5449 5450 5452 5454 5455 5459 5461 5463 5466 5470 5473 5476 5479 5481 5483 5484 5485 5486 5486 5486 5487 5486 5485 5485 5484 5480 5477 5471 5467 5465 5465 5465
5451 5449 5450 5449 5449 5449 5450 5451 5451 5454 5455 5457 5460 5463 5466 5470 5473 5477 5480 5482 5484 5486 5487 5488 5489 5489 5489 5489 5488 5487 5485 5485 5484 5481 5477 5469 5466 5462